Location: Ettringen
(48.1054°N, 10.6545°E)
Time: 21:57:50
(UTC+00:00)

SL-16 R/B - Pass Details

Date: 18 November 2025
Orbit: 985 x 1006 km, 99.8° (Epoch: 05 December)

Event Time Altitude Azimuth Distance (km) Brightness Sun altitude
Rises 16:44:09 0° 12° (NNE) 3,747 5.3 -11.3°
Reaches altitude 10° 16:46:42 10° 8° (N) 2,792 4.7 -11.7°
Maximum altitude 16:52:45 53° 294° (WNW) 1,222 3.4 -12.7°
Drops below altitude 10° 16:58:46 10° 220° (SW) 2,767 5.7 -13.7°
Sets 17:01:16 0° 215° (SW) 3,710 6.3 -14.1°
